Zurück zum Katalog

COSMOS 1864

AktivMilitärPO
NORAD 18160·PAYLOAD·🇷🇺 Russia

Gestartet Jul 6, 1987 von Plesetsk Cosmodrome

Loading…

Nächste Überflüge (nächste 24 Stunden)

TLE

AktuellSource: Space-Track

Epoche: Sep 14, 2026, 08:05 UTC

1 18160U 87057A   26257.33726440  .00000036  00000-0  21619-4 0  9996
2 18160  82.9291  99.9397 0030822 306.7653 226.5809 13.75821942947116

Verfolge COSMOS 1864 in Echtzeit mit AllMySat

Download on the App Store